Time,TemperatureF,DewpointF,PressureIn,WindDirection,WindDirectionDegrees,WindSpeedMPH,WindSpeedGustMPH,Humidity,HourlyPrecipIn,Conditions,Clouds,dailyrainin,SoftwareType,DateUTC
2013-10-16 00:02:00,49.4,43.0,30.16,East,96,0.0,0.0,79,0.00,,,0.00,weatherlink.com 1.10,2013-10-16 04:02:00,
2013-10-16 00:17:00,49.2,44.0,30.15,East,95,0.0,0.0,81,0.00,,,0.00,weatherlink.com 1.10,2013-10-16 04:17:00,
2013-10-16 00:32:00,49.1,44.0,30.14,NE,46,0.0,3.0,82,0.00,,,0.00,weatherlink.com 1.10,2013-10-16 04:32:00,
2013-10-16 00:47:00,49.7,45.0,30.14,NNE,33,0.0,2.0,83,0.00,,,0.00,weatherlink.com 1.10,2013-10-16 04:47:00,
2013-10-16 01:02:00,49.7,45.0,30.14,NE,35,0.0,1.0,83,0.00,,,0.00,weatherlink.com 1.10,2013-10-16 05:02:00,
2013-10-16 01:17:00,49.2,44.0,30.14,NE,35,0.0,0.0,83,0.00,,,0.00,weatherlink.com 1.10,2013-10-16 05:17:00,
2013-10-16 01:32:00,49.0,44.0,30.14,NE,35,0.0,0.0,84,0.00,,,0.00,weatherlink.com 1.10,2013-10-16 05:32:00,
2013-10-16 01:47:00,48.9,44.0,30.14,NE,35,0.0,0.0,84,0.00,,,0.00,weatherlink.com 1.10,2013-10-16 05:47:00,
2013-10-16 02:02:00,48.8,45.0,30.15,East,94,1.0,1.0,85,0.00,,,0.00,weatherlink.com 1.10,2013-10-16 06:02:00,
2013-10-16 02:17:00,48.8,45.0,30.14,ESE,102,0.0,0.0,85,0.00,,,0.00,weatherlink.com 1.10,2013-10-16 06:17:00,
2013-10-16 02:32:00,48.9,45.0,30.14,ESE,102,0.0,1.0,86,0.00,,,0.00,weatherlink.com 1.10,2013-10-16 06:32:00,
2013-10-16 02:47:00,48.9,45.0,30.14,ESE,103,0.0,0.0,86,0.00,,,0.00,weatherlink.com 1.10,2013-10-16 06:47:00,
2013-10-16 03:02:00,48.9,45.0,30.14,ESE,103,0.0,0.0,86,0.00,,,0.00,weatherlink.com 1.10,2013-10-16 07:02:00,
2013-10-16 03:17:00,48.7,45.0,30.13,ESE,103,0.0,0.0,86,0.00,,,0.00,weatherlink.com 1.10,2013-10-16 07:17:00,
2013-10-16 03:32:00,48.6,45.0,30.13,ESE,103,0.0,0.0,86,0.00,,,0.00,weatherlink.com 1.10,2013-10-16 07:32:00,
2013-10-16 03:47:00,48.6,45.0,30.12,ESE,103,0.0,1.0,87,0.00,,,0.00,weatherlink.com 1.10,2013-10-16 07:47:00,
2013-10-16 04:02:00,49.0,46.0,30.12,ESE,103,0.0,1.0,88,0.00,,,0.00,weatherlink.com 1.10,2013-10-16 08:02:00,
2013-10-16 04:17:00,49.4,46.0,30.12,East,87,0.0,0.0,88,0.00,,,0.00,weatherlink.com 1.10,2013-10-16 08:17:00,
2013-10-16 04:32:00,49.7,46.0,30.12,East,82,0.0,1.0,87,0.00,,,0.00,weatherlink.com 1.10,2013-10-16 08:32:00,
2013-10-16 04:47:00,49.5,46.0,30.12,NE,55,0.0,1.0,86,0.00,,,0.00,weatherlink.com 1.10,2013-10-16 08:47:00,
2013-10-16 05:02:00,49.0,45.0,30.12,NE,45,0.0,1.0,86,0.00,,,0.00,weatherlink.com 1.10,2013-10-16 09:02:00,
2013-10-16 05:17:00,48.8,45.0,30.12,NW,319,0.0,1.0,86,0.00,,,0.00,weatherlink.com 1.10,2013-10-16 09:17:00,
2013-10-16 05:32:00,48.6,45.0,30.12,NW,319,0.0,0.0,86,0.00,,,0.00,weatherlink.com 1.10,2013-10-16 09:32:00,
2013-10-16 05:47:00,48.5,45.0,30.12,NW,320,0.0,0.0,86,0.00,,,0.00,weatherlink.com 1.10,2013-10-16 09:47:00,
2013-10-16 06:02:00,48.9,45.0,30.13,NW,320,0.0,0.0,86,0.00,,,0.00,weatherlink.com 1.10,2013-10-16 10:02:00,
2013-10-16 06:17:00,49.3,45.0,30.12,NNW,348,0.0,0.0,86,0.00,,,0.00,weatherlink.com 1.10,2013-10-16 10:17:00,
2013-10-16 06:32:00,49.4,45.0,30.12,NNW,348,0.0,0.0,85,0.00,,,0.00,weatherlink.com 1.10,2013-10-16 10:32:00,
2013-10-16 06:47:00,49.7,46.0,30.12,NNW,348,0.0,0.0,86,0.00,,,0.00,weatherlink.com 1.10,2013-10-16 10:47:00,
2013-10-16 07:02:00,50.2,46.0,30.11,North,11,0.0,0.0,86,0.00,,,0.00,weatherlink.com 1.10,2013-10-16 11:02:00,
2013-10-16 07:17:00,50.5,47.0,30.11,North,11,0.0,0.0,86,0.00,,,0.00,weatherlink.com 1.10,2013-10-16 11:17:00,
2013-10-16 07:32:00,50.8,47.0,30.11,SSE,148,0.0,1.0,85,0.00,,,0.00,weatherlink.com 1.10,2013-10-16 11:32:00,
2013-10-16 07:47:00,51.1,46.0,30.11,SE,132,0.0,2.0,83,0.00,,,0.00,weatherlink.com 1.10,2013-10-16 11:47:00,
2013-10-16 08:02:00,51.5,46.0,30.10,SE,132,0.0,2.0,80,0.00,,,0.00,weatherlink.com 1.10,2013-10-16 12:02:00,
2013-10-16 08:17:00,52.1,45.0,30.10,NE,36,0.0,1.0,78,0.00,,,0.00,weatherlink.com 1.10,2013-10-16 12:17:00,
2013-10-16 08:32:00,52.6,45.0,30.10,NW,322,0.0,1.0,76,0.00,,,0.00,weatherlink.com 1.10,2013-10-16 12:32:00,
2013-10-16 08:47:00,53.0,45.0,30.09,ENE,65,0.0,3.0,75,0.00,,,0.00,weatherlink.com 1.10,2013-10-16 12:47:00,
2013-10-16 09:03:00,53.3,45.0,30.10,NE,56,0.0,2.0,74,0.00,,,0.00,weatherlink.com 1.10,2013-10-16 13:03:00,
2013-10-16 09:18:00,53.7,45.0,30.10,East,80,0.0,3.0,73,0.00,,,0.00,weatherlink.com 1.10,2013-10-16 13:18:00,
2013-10-16 09:33:00,54.7,45.0,30.11,ENE,70,0.0,2.0,71,0.00,,,0.00,weatherlink.com 1.10,2013-10-16 13:33:00,
2013-10-16 09:48:00,55.4,46.0,30.11,ENE,69,0.0,2.0,71,0.00,,,0.00,weatherlink.com 1.10,2013-10-16 13:48:00,
2013-10-16 10:03:00,56.1,47.0,30.10,NNW,346,0.0,3.0,71,0.00,,,0.00,weatherlink.com 1.10,2013-10-16 14:03:00,
2013-10-16 10:18:00,56.3,47.0,30.09,NE,55,0.0,3.0,71,0.00,,,0.00,weatherlink.com 1.10,2013-10-16 14:18:00,
2013-10-16 10:33:00,56.4,46.0,30.09,NE,41,0.0,2.0,69,0.00,,,0.00,weatherlink.com 1.10,2013-10-16 14:33:00,
2013-10-16 10:48:00,56.7,47.0,30.09,WNW,295,0.0,2.0,70,0.00,,,0.00,weatherlink.com 1.10,2013-10-16 14:48:00,
2013-10-16 11:03:00,56.9,48.0,30.10,East,92,0.0,0.0,71,0.00,,,0.00,weatherlink.com 1.10,2013-10-16 15:03:00,
2013-10-16 11:18:00,57.1,47.0,30.08,East,80,0.0,0.0,70,0.00,,,0.00,weatherlink.com 1.10,2013-10-16 15:18:00,
2013-10-16 11:33:00,57.7,48.0,30.08,East,83,0.0,1.0,69,0.00,,,0.00,weatherlink.com 1.10,2013-10-16 15:33:00,
2013-10-16 11:48:00,58.5,48.0,30.07,NNE,21,0.0,3.0,69,0.00,,,0.00,weatherlink.com 1.10,2013-10-16 15:48:00,
2013-10-16 12:03:00,59.4,48.0,30.07,SE,139,2.0,5.0,67,0.00,,,0.00,weatherlink.com 1.10,2013-10-16 16:03:00,
2013-10-16 12:18:00,59.8,49.0,30.07,West,277,0.0,1.0,67,0.00,,,0.00,weatherlink.com 1.10,2013-10-16 16:18:00,
2013-10-16 12:33:00,60.1,48.0,30.06,SE,124,0.0,5.0,65,0.00,,,0.00,weatherlink.com 1.10,2013-10-16 16:33:00,
2013-10-16 12:48:00,59.9,49.0,30.06,SE,128,2.0,2.0,67,0.00,,,0.00,weatherlink.com 1.10,2013-10-16 16:48:00,
2013-10-16 13:03:00,59.9,50.0,30.05,WSW,240,0.0,5.0,70,0.00,,,0.00,weatherlink.com 1.10,2013-10-16 17:03:00,
2013-10-16 13:18:00,60.5,50.0,30.04,ESE,106,0.0,2.0,69,0.00,,,0.00,weatherlink.com 1.10,2013-10-16 17:18:00,
2013-10-16 13:33:00,60.2,50.0,30.04,SSE,148,0.0,4.0,70,0.00,,,0.00,weatherlink.com 1.10,2013-10-16 17:33:00,
2013-10-16 13:48:00,60.3,50.0,30.03,ESE,123,0.0,1.0,69,0.00,,,0.00,weatherlink.com 1.10,2013-10-16 17:48:00,
2013-10-16 14:03:00,60.6,50.0,30.02,SE,125,1.0,3.0,69,0.00,,,0.00,weatherlink.com 1.10,2013-10-16 18:03:00,
2013-10-16 14:18:00,61.5,51.0,30.02,SSE,150,1.0,1.0,69,0.00,,,0.00,weatherlink.com 1.10,2013-10-16 18:18:00,
2013-10-16 14:33:00,62.1,51.0,30.02,ESE,116,0.0,3.0,68,0.00,,,0.00,weatherlink.com 1.10,2013-10-16 18:33:00,
2013-10-16 14:48:00,62.1,51.0,30.02,ESE,115,0.0,1.0,67,0.00,,,0.00,weatherlink.com 1.10,2013-10-16 18:48:00,
2013-10-16 15:03:00,61.9,51.0,30.00,ESE,115,0.0,1.0,68,0.00,,,0.00,weatherlink.com 1.10,2013-10-16 19:03:00,
2013-10-16 15:18:00,62.0,52.0,30.01,West,271,0.0,1.0,70,0.00,,,0.00,weatherlink.com 1.10,2013-10-16 19:18:00,
2013-10-16 15:33:00,62.4,52.0,30.01,West,271,0.0,1.0,69,0.00,,,0.00,weatherlink.com 1.10,2013-10-16 19:33:00,
2013-10-16 15:48:00,62.5,52.0,30.01,West,271,0.0,0.0,69,0.00,,,0.00,weatherlink.com 1.10,2013-10-16 19:48:00,
2013-10-16 16:03:00,62.5,53.0,30.01,WSW,245,0.0,1.0,70,0.00,,,0.00,weatherlink.com 1.10,2013-10-16 20:03:00,
2013-10-16 16:18:00,62.3,53.0,30.00,WSW,245,0.0,1.0,71,0.00,,,0.00,weatherlink.com 1.10,2013-10-16 20:18:00,
2013-10-16 16:33:00,62.1,53.0,30.00,WSW,246,0.0,0.0,72,0.00,,,0.00,weatherlink.com 1.10,2013-10-16 20:33:00,
2013-10-16 16:48:00,61.9,53.0,30.00,WSW,246,0.0,0.0,72,0.00,,,0.00,weatherlink.com 1.10,2013-10-16 20:48:00,
2013-10-16 17:03:00,61.7,53.0,29.99,WSW,246,0.0,0.0,73,0.00,,,0.00,weatherlink.com 1.10,2013-10-16 21:03:00,
2013-10-16 17:18:00,61.3,53.0,30.00,WSW,245,0.0,0.0,74,0.00,,,0.00,weatherlink.com 1.10,2013-10-16 21:18:00,
2013-10-16 17:33:00,60.8,53.0,29.99,WSW,245,0.0,0.0,75,0.00,,,0.00,weatherlink.com 1.10,2013-10-16 21:33:00,
2013-10-16 17:48:00,60.4,53.0,30.00,WSW,245,0.0,0.0,76,0.00,,,0.00,weatherlink.com 1.10,2013-10-16 21:48:00,
2013-10-16 18:03:00,60.0,52.0,29.99,WSW,246,0.0,0.0,76,0.00,,,0.00,weatherlink.com 1.10,2013-10-16 22:03:00,
2013-10-16 18:18:00,59.4,52.0,29.99,WSW,246,0.0,0.0,77,0.00,,,0.00,weatherlink.com 1.10,2013-10-16 22:18:00,
2013-10-16 18:34:00,58.8,52.0,29.99,WSW,246,0.0,0.0,79,0.00,,,0.00,weatherlink.com 1.10,2013-10-16 22:34:00,
2013-10-16 18:49:00,58.4,52.0,29.98,WSW,246,0.0,0.0,80,0.00,,,0.00,weatherlink.com 1.10,2013-10-16 22:49:00,
2013-10-16 19:04:00,58.2,52.0,29.98,WSW,246,0.0,0.0,80,0.00,,,0.00,weatherlink.com 1.10,2013-10-16 23:04:00,
2013-10-16 19:19:00,57.9,52.0,29.97,WSW,246,0.0,0.0,80,0.00,,,0.00,weatherlink.com 1.10,2013-10-16 23:19:00,
2013-10-16 19:34:00,57.7,52.0,29.98,WSW,246,0.0,0.0,81,0.00,,,0.00,weatherlink.com 1.10,2013-10-16 23:34:00,
2013-10-16 19:49:00,57.5,52.0,29.97,WSW,245,0.0,0.0,82,0.00,,,0.00,weatherlink.com 1.10,2013-10-16 23:49:00,
2013-10-16 20:04:00,57.2,52.0,29.97,WSW,245,0.0,0.0,82,0.00,,,0.00,weatherlink.com 1.10,2013-10-17 00:04:00,
2013-10-16 20:19:00,56.8,52.0,29.98,WSW,245,0.0,0.0,83,0.00,,,0.00,weatherlink.com 1.10,2013-10-17 00:19:00,
2013-10-16 20:34:00,56.5,52.0,29.98,WSW,246,0.0,0.0,84,0.00,,,0.00,weatherlink.com 1.10,2013-10-17 00:34:00,
2013-10-16 20:49:00,56.2,52.0,29.98,WSW,246,0.0,0.0,85,0.00,,,0.00,weatherlink.com 1.10,2013-10-17 00:49:00,
2013-10-16 21:04:00,56.2,52.0,29.98,WSW,246,0.0,0.0,85,0.00,,,0.00,weatherlink.com 1.10,2013-10-17 01:04:00,
2013-10-16 21:19:00,56.1,52.0,29.98,WSW,246,0.0,0.0,85,0.00,,,0.00,weatherlink.com 1.10,2013-10-17 01:19:00,
2013-10-16 21:34:00,56.0,52.0,29.97,WSW,245,0.0,0.0,86,0.00,,,0.00,weatherlink.com 1.10,2013-10-17 01:34:00,
2013-10-16 21:49:00,56.0,52.0,29.98,WSW,245,0.0,0.0,86,0.00,,,0.00,weatherlink.com 1.10,2013-10-17 01:49:00,
2013-10-16 22:04:00,55.8,52.0,29.98,WSW,245,0.0,0.0,86,0.00,,,0.00,weatherlink.com 1.10,2013-10-17 02:04:00,
2013-10-16 22:19:00,55.4,51.0,29.97,WSW,246,0.0,0.0,86,0.00,,,0.00,weatherlink.com 1.10,2013-10-17 02:19:00,
2013-10-16 22:34:00,55.1,51.0,29.97,WSW,246,0.0,0.0,87,0.00,,,0.00,weatherlink.com 1.10,2013-10-17 02:34:00,
2013-10-16 22:49:00,55.1,51.0,29.97,WSW,246,0.0,0.0,87,0.00,,,0.00,weatherlink.com 1.10,2013-10-17 02:49:00,
2013-10-16 23:04:00,55.3,52.0,29.96,WSW,246,0.0,0.0,88,0.00,,,0.00,weatherlink.com 1.10,2013-10-17 03:04:00,
2013-10-16 23:19:00,55.7,52.0,29.96,WSW,246,0.0,0.0,88,0.00,,,0.00,weatherlink.com 1.10,2013-10-17 03:19:00,
2013-10-16 23:34:00,56.1,53.0,29.96,WSW,245,0.0,0.0,89,0.00,,,0.00,weatherlink.com 1.10,2013-10-17 03:34:00,
2013-10-16 23:49:00,56.5,53.0,29.95,WSW,245,0.0,0.0,89,0.00,,,0.00,weatherlink.com 1.10,2013-10-17 03:49:00,